Dewpoint
25 32 24 21 24 20 18 19 19 20 20 21 22 21 28 36 37 43 47 51 54 57 58 61 64 66 66 69 70 71 72 73 72 70 68 68 67 68 68 69 72 73 72 73
19 18 20 20 19 20 19 19 19 21 21 23 20 19 28 38 41 44 45 48 50 52 57 60 62 64 67 68 70 71 72 73 72 70 70 69 69 67 67 68 70 72 73 73
19 17 21 20 20 20 20 20 21 19 21 16 20 21 36 39 42 44 46 47 48 50 52 57 59 62 63 67 70 71 72 73 72 72 71 71 70 69 68 68 69 71 72 73
20 18 19 22 21 21 20 20 20 19 17 16 19 15 27 40 39 41 43 45 47 50 52 55 57 60 62 63 67 71 72 73 73 73 72 72 68 67 68 68 69 69 72 72
19 18 21 23 22 19 23 17 19 17 18 18 18 15 25 40 39 40 43 47 49 53 54 55 55 59 61 63 66 68 73 74 73 73 73 71 71 69 70 69 72 73 73 72
19 21 22 22 23 24 25 23 24 23 18 17 22 18 20 27 40 43 45 47 50 51 53 57 59 59 61 61 61 66 70 73 74 74 73 73 72 72 70 71 70 70 70 70
20 23 25 25 22 25 26 23 19 19 18 18 24 20 25 36 44 45 46 47 50 54 54 56 60 61 63 63 62 64 69 70 73 73 73 73 73 73 73 73 71 71 69 70
18 18 24 27 25 25 25 26 21 21 18 19 25 24 28 42 46 48 50 49 53 55 58 60 61 61 63 63 63 63 67 70 71 72 73 73 74 71 72 73 71 70 70 71
24 23 25 27 26 26 26 26 25 26 27 21 24 29 37 45 45 46 46 47 50 50 56 60 60 60 62 64 63 63 67 70 70 71 73 74 74 73 72 74 74 71 72 71
28 23 23 26 26 28 28 28 28 30 26 25 27 31 30 33 35 40 45 47 51 51 55 59 59 61 61 63 64 64 66 68 70 71 72 72 73 74 73 74 73 73 73 73
27 28 26 28 27 27 27 29 31 29 30 24 24 25 37 37 41 44 47 49 53 53 55 59 59 61 61 62 65 65 66 67 67 69 72 73 72 73 73 73 72 72 73 73
29 27 27 25 27 28 29 31 30 28 29 29 29 26 31 38 43 47 48 52 53 54 54 58 60 61 61 62 64 63 65 66 68 68 68 68 72 73 72 73 73 72 72 72
31 30 26 27 28 30 29 31 32 33 34 31 28 27 33 36 38 44 50 50 55 58 59 61 62 61 62 62 64 64 66 66 66 67 67 67 67 67 72 73 72 73 73 72
40 31 31 25 29 31 30 30 31 32 29 29 28 30 32 35 45 50 52 55 57 58 59 61 63 63 63 62 63 64 64 66 67 66 67 68 68 69 68 73 74 72 73 73
36 34 33 30 29 30 29 28 27 30 30 28 28 28 33 43 50 51 54 56 56 56 57 60 61 64 64 64 63 64 65 66 67 66 66 66 67 71 72 73 73 73 72 73
33 32 34 28 27 27 27 27 28 28 28 28 31 33 44 50 50 52 52 52 54 55 57 59 61 63 64 63 64 63 65 66 67 66 65 66 66 66 68 68 68 67 67 66
33 32 32 26 27 27 25 28 28 28 31 34 34 40 46 47 49 52 51 51 52 55 58 59 61 63 63 63 64 63 64 66 66 65 64 64 65 65 66 67 67 66 66 66
34 36 32 26 30 22 26 43 45 41 41 44 45 46 48 51 53 52 54 54 55 57 57 58 61 62 64 64 64 64 64 64 64 64 66 65 65 64 65 66 66 67 67 67
32 34 30 28 25 28 29 42 43 41 40 43 45 45 45 49 50 48 52 55 57 57 59 61 62 62 63 62 63 63 62 63 63 63 63 63 65 64 63 64 65 66 66 66
35 37 34 37 32 27 37 45 48 47 39 45 48 46 46 50 43 45 53 54 56 59 60 61 61 61 61 61 61 61 61 61 61 61 61 62 64 64 64 64 65 66 66 65
34 44 40 39 36 36 41 46 49 39 37 45 48 50 50 47 48 54 55 56 58 59 59 61 61 61 60 60 59 59 60 60 61 61 62 63 62 62 63 64 65 65 66 66
36 40 41 42 39 33 45 48 43 44 49 47 48 51 53 54 55 55 56 58 58 59 60 60 59 59 59 59 61 60 61 62 61 61 61 61 63 61 60 64 64 65 65 65
40 42 38 43 37 43 46 48 48 52 50 50 51 52 55 55 54 55 56 57 58 59 60 59 57 59 60 61 62 61 61 62 61 60 60 60 61 61 62 62 64 62 64 64
43 45 42 40 38 39 41 46 49 51 51 52 54 55 54 54 55 55 57 59 60 60 60 59 57 59 59 60 60 60 60 60 60 59 59 59 59 60 61 59 58 60 61 61
35 45 40 41 41 43 43 46 49 52 55 54 53 55 55 56 54 56 57 58 59 60 61 61 60 59 59 59 59 59 59 59 58 58 57 58 57 59 58 60 58 57 58 55
36 37 36 34 41 45 45 49 52 53 51 52 54 54 55 55 55 57 57 58 59 60 61 60 60 60 59 60 60 60 60 59 58 57 55 55 55 55 54 55 55 48 46 44
Lifted_Index
6 6 5 6 6 5 5 4 4 4 4 4 4 5 4 4 4 3 2 1 -0 -2 -3 -4 -5 -5 -5 -6 -6 -6 -6 -6 -6 -5 -5 -4 -4 -4 -4 -4 -5 -6 -6 -5
6 6 6 6 6 5 5 4 4 4 4 4 4 4 4 4 3 3 2 2 1 -1 -3 -4 -4 -5 -5 -6 -6 -7 -7 -6 -6 -6 -5 -5 -5 -4 -4 -4 -5 -5 -5 -5
6 6 6 6 5 5 5 4 4 4 4 4 4 3 3 3 3 3 2 2 1 0 -1 -3 -4 -4 -5 -6 -6 -7 -7 -6 -6 -6 -5 -5 -5 -5 -5 -5 -5 -5 -5 -6
6 6 6 5 5 5 5 4 4 4 4 3 3 3 3 3 2 2 2 2 1 1 -1 -2 -2 -3 -4 -4 -6 -6 -7 -7 -7 -6 -6 -6 -5 -5 -5 -5 -5 -6 -6 -6
6 6 6 6 5 5 5 5 4 4 3 3 3 3 3 2 2 2 1 1 0 -0 -1 -2 -2 -2 -3 -3 -4 -6 -7 -7 -7 -7 -7 -6 -6 -6 -6 -6 -6 -6 -6 -6
5 6 6 6 6 6 5 4 4 3 3 3 3 3 3 2 2 1 1 1 0 -1 -1 -2 -2 -2 -3 -3 -3 -5 -6 -7 -7 -7 -7 -7 -7 -7 -7 -7 -7 -6 -6 -6
4 5 5 6 6 5 5 4 3 2 2 2 3 3 3 2 1 1 0 0 -1 -1 -2 -3 -3 -3 -3 -3 -3 -4 -5 -6 -7 -7 -7 -7 -7 -7 -7 -7 -7 -6 -6 -6
3 4 5 5 5 5 4 4 3 2 2 2 3 3 3 2 1 0 0 -0 -1 -2 -3 -3 -4 -3 -4 -3 -3 -3 -5 -6 -7 -7 -8 -8 -8 -7 -7 -7 -7 -7 -7 -7
4 4 5 5 5 5 5 4 4 3 3 3 3 3 3 2 1 0 -0 -1 -1 -1 -2 -3 -3 -3 -3 -3 -3 -3 -4 -6 -6 -7 -8 -8 -8 -8 -7 -8 -7 -7 -7 -7
5 5 5 5 5 5 5 5 4 4 3 2 3 3 2 2 1 0 -0 -1 -1 -1 -2 -3 -3 -3 -3 -3 -3 -4 -4 -5 -6 -7 -7 -8 -8 -8 -8 -7 -7 -7 -7 -7
5 5 5 5 5 5 5 4 4 4 3 3 3 3 3 2 1 0 -0 -1 -1 -1 -2 -2 -3 -3 -3 -3 -3 -4 -4 -5 -6 -6 -7 -8 -8 -8 -8 -7 -7 -7 -7 -7
5 5 5 5 5 5 5 5 4 4 4 4 4 4 4 3 2 1 -0 -1 -1 -2 -2 -2 -3 -3 -2 -3 -3 -3 -4 -4 -5 -5 -6 -7 -8 -8 -8 -7 -7 -7 -7 -7
5 5 5 5 5 6 5 5 4 4 4 4 4 4 4 3 2 1 -0 -1 -2 -2 -3 -3 -3 -3 -3 -2 -3 -3 -3 -3 -4 -4 -5 -6 -7 -7 -7 -7 -7 -7 -7 -7
5 5 5 5 5 6 5 5 4 4 4 4 4 4 4 3 1 -0 -1 -2 -3 -3 -3 -4 -4 -4 -3 -3 -2 -3 -3 -3 -3 -3 -4 -5 -5 -6 -6 -7 -7 -7 -7 -7
6 6 6 6 6 6 6 5 5 4 4 4 4 4 3 1 -0 -1 -2 -2 -2 -2 -3 -3 -4 -4 -4 -3 -3 -3 -3 -3 -2 -2 -3 -4 -5 -5 -6 -6 -7 -7 -7 -7
6 6 6 6 6 6 6 5 5 4 4 4 4 3 2 0 -1 -1 -2 -2 -2 -2 -2 -3 -3 -4 -4 -4 -3 -3 -3 -3 -2 -2 -2 -3 -4 -5 -5 -5 -6 -6 -6 -6
6 6 6 6 6 6 5 5 4 4 3 2 2 1 0 -1 -1 -1 -1 -1 -1 -2 -2 -2 -3 -3 -4 -3 -3 -3 -3 -3 -2 -2 -2 -2 -2 -3 -3 -4 -4 -5 -5 -5
6 6 6 5 5 5 4 3 2 2 1 1 0 -0 -1 -1 -1 -1 -1 -1 -2 -2 -2 -2 -2 -3 -3 -3 -2 -2 -2 -2 -2 -2 -1 -1 -1 -1 -1 -1 -2 -2 -2 -2
6 6 5 5 4 4 3 2 1 1 1 0 -1 -1 -1 -1 -1 -1 -1 -1 -1 -2 -2 -2 -2 -2 -1 -1 -1 -1 -1 -1 -1 -1 -1 -1 -1 -0 0 0 -0 -1 -1 -1
5 4 4 4 3 3 2 1 1 1 1 0 -1 -1 -1 -1 -0 -0 -1 -1 -1 -2 -2 -2 -2 -1 -0 -0 -0 -1 -1 -1 -1 -0 -0 -0 -0 0 0 0 0 0 -0 -0
4 3 2 2 2 2 1 0 -0 0 0 -0 -1 -2 -2 -1 -1 -1 -1 -1 -2 -2 -2 -2 -1 -1 0 0 0 -0 -1 -0 -0 -0 -0 0 0 1 1 0 0 -0 -1 -1
3 2 1 1 1 1 1 -0 -1 -1 -1 -1 -2 -2 -2 -2 -2 -1 -1 -2 -2 -2 -2 -1 -1 0 1 0 -0 -1 -1 -0 -0 0 0 1 1 1 1 0 -0 -1 -1 -1
2 2 1 1 1 1 0 -1 -1 -2 -2 -2 -2 -2 -2 -2 -2 -1 -1 -2 -2 -2 -2 -1 0 1 1 1 0 -0 -0 0 0 1 1 1 1 1 1 0 -0 -1 -1 -1
1 1 1 2 1 1 -0 -1 -2 -2 -2 -3 -3 -3 -3 -2 -2 -1 -1 -2 -2 -2 -2 -1 0 1 1 1 1 1 1 1 1 1 2 2 1 1 1 1 1 1 0 0
1 1 2 2 1 0 -0 -1 -2 -3 -3 -3 -3 -3 -3 -2 -2 -1 -1 -1 -2 -2 -2 -1 -0 0 1 1 1 1 1 2 2 2 2 2 2 2 2 3 3 3 3 3
2 2 2 2 1 0 -1 -1 -2 -3 -3 -3 -3 -3 -3 -2 -2 -1 -1 -1 -2 -2 -2 -1 -1 0 1 1 1 1 1 2 2 2 2 3 3 3 3 3 4 4 4 4